This is the latest recevied weather packets stored in our database for station/object N5CSU. If no packets are shown the sender has not sent any weather packets the latest 10 day(s).
| Time | Temp. | Humidity | Pressure | Rain* | Wind** | Luminosity | Snow |
|---|---|---|---|---|---|---|---|
| 1788002199 | 25° C | 79% | 1017.7 hPa | 0 mm | - | 0 W/m² | - |
| 1788001894 | 25° C | 79% | 1017.6 hPa | 0 mm | - | 0 W/m² | - |
| 1788001589 | 25° C | 80% | 1017.5 hPa | 0 mm | - | 0 W/m² | - |
| 1788001284 | 25° C | 80% | 1017.5 hPa | 0 mm | - | 0 W/m² | - |
| 1788000978 | 25° C | 80% | 1017.7 hPa | 0 mm | - | 0 W/m² | - |
| 1788000673 | 25° C | 80% | 1017.7 hPa | 0 mm | - | 0 W/m² | - |
| 1788000368 | 25° C | 81% | 1017.6 hPa | 0 mm | - | 0 W/m² | - |
| 1788000063 | 25° C | 81% | 1017.7 hPa | 0 mm | - | 0 W/m² | - |
| 1787999759 | 25° C | 82% | 1017.8 hPa | 0 mm | - | 0 W/m² | - |
| 1787999456 | 25° C | 81% | 1017.6 hPa | 0 mm | - | 0 W/m² | - |
| 1787999155 | 25° C | 80% | 1017.5 hPa | 0 mm | - | 0 W/m² | - |
| 1787998850 | 25.56° C | 83% | 1017.8 hPa | 0 mm | - | 0 W/m² | - |
| 1787998549 | 25.56° C | 80% | 1017.8 hPa | 0 mm | - | 0 W/m² | - |
| 1787998243 | 25.56° C | 79% | 1017.7 hPa | 0 mm | - | 0 W/m² | - |
| 1787997938 | 25.56° C | 75% | 1017.6 hPa | 0 mm | - | 0 W/m² | - |
| 1787997632 | 25.56° C | 76% | 1017.7 hPa | 0 mm | - | 0 W/m² | - |
| 1787997331 | 25.56° C | 78% | 1017.6 hPa | 0 mm | - | 0 W/m² | - |
| 1787997025 | 25.56° C | 79% | 1017.7 hPa | 0 mm | - | 0 W/m² | - |
| 1787996720 | 25.56° C | 75% | 1017.5 hPa | 0 mm | - | 0 W/m² | - |
| 1787996416 | 26.11° C | 75% | 1017.4 hPa | 0 mm | - | 0 W/m² | - |
| 1787996116 | 26.67° C | 76% | 1017.3 hPa | 0 mm | - | 0 W/m² | - |
| 1787995810 | 26.67° C | 71% | 1017.4 hPa | 0 mm | - | 0 W/m² | - |
| 1787995506 | 26.67° C | 70% | 1017.2 hPa | 0 mm | - | 0 W/m² | - |
| 1787995201 | 26.67° C | 70% | 1017.2 hPa | 0 mm | - | 0 W/m² | - |
| 1787994896 | 26.67° C | 69% | 1017.1 hPa | 0 mm | - | 0 W/m² | - |
* Rain latest hour (hover to see other rain measurements)
** Current wind speed in m/s (hover to see current wind gust speed)